Terug naar catalogus

SL-23 R/B

ActiefHEO
NORAD 39238·ROCKET BODY·🇷🇺 Russia

Gelanceerd Aug 31, 2013 vanaf Baikonur Cosmodrome

Loading…

Volgende Passages (komende 24 uur)

TLE

VersSource: Space-Track

Epoch: Sep 14, 2026, 00:36 UTC

1 39238U 13045B   26257.02553449 -.00000195  00000-0  00000-0 0  9998
2 39238  26.6316  60.8901 6405964 139.0639 293.1582  2.10664027100335

Volg SL-23 R/B in realtime met AllMySat

Download on the App Store